Location: Gad�tanya
(48.0500°N, 20.8500°E)
Time: 08:08:21
(UTC+00:00)

Cosmos 1818 - Pass Details

Date: 05 July 2020
Orbit: 777 x 796 km, 65.0° (Epoch: 05 August)

Event Time Altitude Azimuth Distance (km) Brightness Sun altitude
Rises 19:05:15 0° 198° (SSW) 3,265 6.5 -4.3°
Reaches altitude 10° 19:07:43 10° 193° (SSW) 2,344 5.7 -4.6°
Maximum altitude 19:12:53 49° 120° (ESE) 1,016 3.8 -5.3°
Drops below altitude 10° 19:18:07 10° 46° (NE) 2,370 6.0 -5.9°
Sets 19:20:37 0° 42° (NE) 3,305 6.8 -6.2°
